KAZEOSAT 2

Last updated on Mon Jun 22 2026 00:02:51 GMT+0000 (Coordinated Universal Time)

1 40010U 14033A 26172.54108969 .00000113 00000+0 18924-4 0 9998 2 40010 97.5407 11.9225 0007483 313.6499 46.4096 14.85473699649606
UTC large
Height (km)
Speed (km/s)
/
Latitude / Longitude
Inclination (degrees)
Orbital Period (minutes)
Azimuth
Elevation
Range (km)
Doppler Factor

Next 0 passes for location: London (51.5072 / 0.1276)

No passes found over London.
KAZEOSAT 2